Theta_e
339 348 351 353 353 352 352 351 353 353 352 352 351 351 350 348 347 347 345 342 341 341 341 340 340 341 342 344 345 345 345 345 346 348 347 347 346 345 345 345 345 345 349
345 350 350 354 354 354 353 353 353 352 352 351 350 351 350 349 347 345 344 345 342 340 339 338 337 337 338 340 342 343 344 344 344 344 344 346 347 344 344 343 345 341 347
346 350 350 350 354 353 352 353 353 352 352 351 349 349 349 348 345 345 344 344 341 339 339 336 334 333 334 338 339 340 342 342 341 343 343 338 339 343 344 342 342 342 343
346 349 350 348 351 352 351 351 352 351 351 348 347 350 349 347 344 341 339 338 338 338 338 335 333 331 332 333 335 337 338 337 339 341 335 335 336 341 342 342 341 340 340
344 348 348 347 350 351 350 350 351 351 350 347 347 349 348 346 343 340 339 338 336 336 335 332 331 329 329 329 330 332 333 333 334 332 328 328 329 334 337 338 340 339 338
341 346 344 348 351 351 349 350 350 350 348 347 346 348 348 346 342 340 339 338 336 334 332 329 327 326 326 326 326 327 328 328 324 322 322 326 325 333 334 335 335 336 337
341 344 345 346 348 349 349 349 349 349 348 348 347 347 346 345 342 340 339 338 337 335 334 330 325 323 322 322 322 324 324 325 313 318 318 320 323 330 330 330 331 332 333
337 344 345 338 340 342 347 347 347 347 347 346 346 345 345 344 343 340 339 338 337 336 334 332 327 321 319 318 318 320 322 323 313 313 314 316 329 329 329 328 327 328 329
318 322 339 342 338 335 337 341 344 345 346 345 345 344 343 343 342 341 340 339 337 335 334 332 327 322 317 315 315 318 321 318 306 307 312 313 327 329 329 327 327 327 329
309 311 313 319 337 338 339 332 339 340 341 341 339 338 336 337 337 336 334 338 337 335 333 331 327 323 318 316 318 319 316 311 302 304 307 313 324 326 328 329 328 328 329
306 307 308 309 312 327 337 332 333 336 336 336 335 332 331 333 334 332 332 335 337 335 332 330 327 323 317 316 318 315 309 300 300 301 304 318 320 324 326 327 329 328 328
302 305 308 308 309 312 329 337 340 339 338 338 338 335 336 337 334 332 327 329 332 332 332 329 328 325 319 311 306 308 301 299 299 300 303 314 316 320 322 324 326 329 328
302 307 311 313 313 310 319 333 336 335 334 334 335 337 334 332 328 326 324 324 327 324 325 323 320 319 315 312 310 305 303 301 299 300 305 313 314 317 319 320 324 328 330
304 307 310 312 314 313 312 333 331 329 328 327 328 333 333 329 328 326 328 329 327 328 324 320 317 319 316 316 312 309 306 303 301 300 302 310 312 315 317 319 320 321 324
304 304 308 311 313 316 326 327 325 322 321 321 323 326 327 324 324 324 322 322 321 321 321 319 315 315 313 312 312 310 309 307 305 303 301 308 313 313 316 320 320 319 319
305 304 307 309 311 316 318 318 318 318 316 318 318 319 320 320 319 318 317 316 315 317 317 315 311 313 309 309 309 309 308 307 308 306 303 303 313 312 314 316 317 317 318
304 305 305 307 307 309 312 312 313 313 313 313 313 314 314 314 312 311 310 310 311 310 309 309 310 311 307 307 306 307 306 307 305 305 304 302 302 308 311 313 314 315 316
302 302 304 306 305 305 305 308 309 309 309 308 310 310 310 310 309 308 308 307 305 305 307 305 304 301 299 299 299 301 305 304 303 303 301 300 300 300 303 308 310 310 312
302 302 303 302 302 301 302 303 303 302 302 302 302 301 302 304 303 302 301 300 300 299 299 303 300 297 294 295 298 300 302 300 299 300 299 299 297 295 297 298 304 300 304
301 302 302 302 300 300 301 300 298 297 296 296 296 295 296 297 297 297 295 294 294 293 293 297 295 294 291 290 298 299 298 296 298 296 297 294 293 292 293 291 294 292 299
301 302 301 301 300 301 300 298 295 293 292 292 291 291 292 292 292 291 291 290 289 289 288 289 292 288 287 287 294 296 296 292 295 291 291 288 288 290 289 289 291 289 289
300 302 302 302 302 303 300 297 294 291 289 288 288 288 289 290 290 289 288 288 287 287 286 286 286 286 285 286 287 290 289 293 288 290 286 286 284 286 286 288 287 287 287
298 302 303 303 300 297 294 292 290 289 287 286 286 286 287 288 288 288 287 287 286 286 285 284 283 284 282 284 284 286 280 279 283 289 284 283 283 283 283 285 285 286 287
295 298 299 297 295 294 293 290 289 287 285 284 284 285 285 286 286 287 286 286 285 285 284 284 284 282 282 280 282 284 281 280 277 277 280 281 282 282 282 283 283 285 287
291 291 294 294 292 291 291 291 288 285 285 285 284 284 284 284 285 285 284 284 284 284 283 282 282 282 282 280 280 280 280 279 279 276 275 276 279 281 281 282 282 283 285
288 288 288 289 289 290 289 287 286 285 284 283 283 282 283 283 283 283 283 282 282 282 282 281 281 280 280 280 280 280 279 277 277 276 275 275 276 278 280 281 281 282 283
Wind_Speed
2 7 10 12 13 13 14 14 13 12 13 13 13 14 16 17 16 15 15 17 16 17 17 17 16 16 16 16 15 14 13 14 13 15 16 17 19 18 18 16 14 12 17
10 9 11 11 12 12 12 11 11 11 11 13 12 13 15 16 16 15 15 15 16 16 16 16 16 16 16 15 15 14 15 14 11 8 12 14 16 17 17 17 15 13 17
11 9 8 12 12 11 10 10 10 11 11 13 12 12 14 16 16 16 16 16 16 15 16 16 16 16 15 15 14 14 14 15 14 9 9 6 10 17 17 16 17 17 16
12 9 9 11 12 11 11 10 10 10 10 12 11 13 13 16 16 16 16 16 15 15 16 15 15 15 15 14 14 14 16 17 15 11 8 9 8 16 16 16 16 17 16
12 10 10 13 13 14 14 8 10 9 9 11 11 12 13 15 15 16 16 16 16 16 15 15 16 16 15 14 14 14 15 17 16 12 10 8 6 12 14 14 13 14 14
8 12 11 11 13 13 14 11 8 8 9 9 9 10 12 14 14 15 15 16 16 16 16 16 16 15 15 15 15 14 15 14 13 9 8 10 7 14 14 13 13 13 12
7 9 7 10 10 14 14 13 11 9 8 8 7 9 11 13 14 15 15 15 15 15 15 15 14 14 14 15 15 16 17 15 9 8 7 7 6 13 13 13 12 12 12
6 6 7 8 9 8 7 10 10 10 9 8 7 8 10 13 13 14 14 14 13 14 14 14 14 14 15 15 15 15 15 14 9 8 7 6 11 12 13 13 12 12 11
8 9 5 5 5 5 6 5 8 9 9 8 7 8 10 11 12 12 11 13 12 14 15 14 14 14 14 13 14 14 13 15 8 6 7 4 12 13 13 13 12 12 12
8 8 7 6 4 4 2 5 7 9 9 8 8 10 10 11 11 10 9 10 12 12 14 13 12 11 12 13 12 12 12 12 7 6 5 5 13 14 14 13 13 12 12
6 7 6 7 6 5 4 5 6 8 10 9 7 8 8 5 6 7 7 9 10 13 13 12 11 9 8 9 10 10 9 4 6 4 3 11 14 14 14 14 13 11 11
4 4 5 4 4 4 1 4 4 5 4 4 5 6 4 5 6 6 6 9 9 8 13 12 11 10 7 4 3 6 3 5 4 3 3 10 12 13 14 14 13 13 10
3 5 6 6 5 3 3 0 3 4 4 4 5 6 5 6 5 4 3 3 3 4 3 5 5 3 5 4 4 4 5 5 3 3 5 11 14 14 14 14 15 15 13
6 4 5 6 5 4 0 2 4 5 4 5 6 6 5 4 4 4 3 4 3 2 4 5 3 4 5 5 4 5 5 4 3 2 4 8 12 15 16 16 16 15 15
5 3 4 5 5 3 5 5 6 5 5 5 6 6 5 6 5 5 4 4 4 4 4 4 4 4 5 5 5 5 5 5 5 3 2 8 10 15 16 17 18 18 18
5 3 3 6 5 6 7 8 6 5 5 6 6 6 7 5 5 5 5 4 5 4 3 4 4 4 4 4 5 6 6 6 6 6 4 6 15 18 18 20 20 19 18
4 4 5 6 5 8 9 8 6 7 7 7 6 7 7 6 7 6 5 5 5 4 6 5 5 6 5 4 5 4 4 5 5 6 5 6 7 15 20 22 23 23 22
6 6 5 5 6 8 8 7 7 8 7 6 6 6 8 8 7 6 5 6 5 5 4 4 5 5 4 5 4 5 5 5 6 7 7 7 8 8 13 23 22 24 24
7 7 6 6 8 9 9 9 9 10 8 7 7 7 8 9 9 8 7 6 6 5 6 5 6 4 4 4 4 5 4 5 6 7 10 10 10 9 7 18 19 24 25
7 7 8 6 8 8 8 8 8 8 8 7 7 7 8 8 10 9 8 8 7 7 7 7 7 6 4 3 4 6 5 5 6 7 9 9 10 10 9 10 6 9 23
7 9 9 9 8 7 7 6 6 6 7 7 7 8 9 8 9 9 7 8 7 8 6 6 3 7 10 6 4 4 4 7 7 6 4 8 11 9 10 8 6 6 8
8 10 10 10 10 5 5 6 5 5 6 7 6 8 8 8 8 9 8 7 6 8 9 7 6 3 5 8 3 2 4 4 4 5 6 7 7 7 10 9 10 10 7
9 11 13 11 8 8 11 10 9 8 5 6 5 6 6 8 8 8 8 7 7 7 7 6 5 6 4 5 9 4 3 1 4 3 4 6 10 5 6 7 10 10 10
7 7 10 10 10 10 12 11 13 8 9 3 5 5 6 7 8 8 8 8 8 6 7 6 5 5 4 4 3 5 5 3 2 5 4 5 7 6 6 7 6 8 8
7 7 7 9 8 9 9 9 9 10 9 7 6 9 8 7 7 7 7 7 7 6 7 8 7 7 5 4 4 3 3 4 4 2 4 5 4 5 5 5 5 5 6
6 7 7 9 7 8 9 9 13 16 13 10 8 8 6 5 5 6 7 7 6 6 7 6 6 7 6 6 4 4 3 2 1 2 2 4 5 4 5 4 4 5 4
Wind_Direction
159 132 126 120 112 110 105 103 100 100 103 100 97 94 94 89 85 79 77 69 64 59 56 55 54 52 52 51 48 44 44 48 49 65 61 63 62 56 52 46 41 45 45
140 134 129 120 116 112 110 107 104 100 97 97 93 94 98 93 82 78 77 74 71 61 54 51 50 49 49 49 45 35 32 36 29 32 65 57 60 56 52 44 48 43 44
130 129 127 128 118 107 101 95 96 95 92 86 89 91 98 91 82 76 66 60 64 61 56 54 50 46 44 44 41 34 27 26 18 61 78 47 54 47 51 53 46 44 42
136 138 140 135 127 119 109 106 100 100 101 99 93 95 102 93 86 79 72 67 64 60 56 53 51 52 50 46 39 28 23 16 9 66 56 53 40 47 44 42 46 43 42
138 145 152 152 149 143 127 121 113 109 110 108 106 108 106 101 94 86 79 76 69 64 58 53 49 48 49 47 41 33 29 22 43 63 53 42 27 38 39 43 42 45 37
139 142 151 162 150 146 131 130 127 123 117 111 104 106 112 112 110 100 91 85 78 69 60 54 49 47 44 41 38 37 30 28 58 61 48 38 39 43 41 38 34 35 36
100 118 129 134 155 144 142 145 147 142 133 123 118 114 117 120 110 100 95 89 82 74 67 60 57 52 48 44 37 34 29 27 53 55 43 33 23 47 46 43 40 37 34
75 110 114 88 86 80 131 150 152 152 143 136 133 126 123 123 112 108 103 103 100 91 77 67 61 55 46 40 34 30 24 30 50 56 37 22 13 37 41 39 37 36 36
53 51 64 120 115 108 107 122 158 156 150 148 141 129 123 122 120 119 122 118 106 95 84 73 69 64 58 50 43 33 29 41 55 42 38 11 16 30 34 35 31 31 32
48 45 27 32 73 124 178 142 148 157 153 150 140 134 130 131 130 132 132 129 120 103 93 83 78 72 66 56 48 41 36 41 57 47 29 14 22 28 28 26 29 30 31
49 46 36 22 17 6 110 155 149 161 159 151 136 134 137 140 134 145 138 127 122 115 99 84 69 67 55 37 51 52 48 39 55 46 28 25 23 24 25 24 20 28 24
74 60 53 27 6 347 290 147 157 175 162 160 157 158 165 156 144 124 113 109 106 115 111 93 75 77 78 62 47 52 53 54 64 73 44 35 23 20 21 20 18 11 19
100 58 31 16 343 312 305 354 58 55 83 71 73 140 123 119 121 110 93 82 101 107 80 75 82 64 66 61 43 41 43 42 34 31 21 29 20 16 16 16 14 10 9
69 44 16 5 349 303 168 81 85 83 69 54 43 50 95 94 99 102 114 100 86 75 92 84 67 71 57 50 58 57 48 43 39 45 17 24 30 24 19 14 12 11 6
89 60 14 19 15 37 85 89 82 83 80 83 65 49 82 92 96 86 65 68 65 56 65 67 55 45 45 28 31 43 33 32 32 38 40 20 29 33 28 27 18 9 3
109 81 50 46 34 59 67 74 77 78 70 69 57 46 52 70 82 85 77 60 67 51 55 65 65 52 46 28 20 20 17 20 26 29 32 35 44 34 30 22 18 16 11
124 112 86 84 60 75 80 78 76 68 65 74 69 59 55 67 79 79 77 67 63 54 57 49 48 47 39 30 30 28 34 38 33 32 46 52 41 39 37 31 24 19 13
129 117 96 96 87 80 87 90 88 84 79 68 69 71 62 68 70 73 72 64 43 47 53 59 50 45 26 20 359 5 37 44 44 50 61 49 44 37 30 27 24 20 10
146 130 104 95 95 96 93 89 83 78 71 66 58 55 51 63 58 67 62 54 47 50 39 55 48 48 21 8 5 30 52 46 45 58 62 55 48 36 30 15 17 20 10
140 121 117 115 115 110 101 94 81 75 69 63 65 57 55 59 61 72 66 56 47 49 40 45 55 28 21 3 25 58 56 44 61 53 57 47 40 30 28 15 21 5 5
144 136 140 136 138 134 124 113 96 100 91 76 65 56 62 67 67 77 76 73 67 69 59 43 51 41 23 4 54 36 38 58 67 54 57 51 34 21 16 10 13 1 355
159 152 149 151 155 156 121 112 112 109 88 93 85 69 60 68 70 79 84 72 60 74 59 48 40 54 44 21 77 53 13 338 28 53 51 42 24 15 6 5 3 351 348
167 160 157 161 143 124 119 113 108 100 85 88 67 74 57 74 73 78 76 79 72 76 74 63 53 59 83 18 35 100 53 327 329 345 36 44 20 7 352 351 351 349 350
182 144 135 135 135 136 137 134 138 134 130 113 118 108 87 71 77 78 82 82 78 73 74 72 53 59 77 57 16 37 56 109 67 330 349 16 1 354 340 340 341 342 347
158 148 138 138 136 141 138 139 129 119 119 126 119 109 95 82 78 82 83 83 82 82 75 75 63 61 60 83 61 12 27 41 54 89 288 324 338 322 324 319 329 329 352
155 149 145 139 148 145 137 136 140 141 142 138 136 123 117 105 95 86 88 83 82 81 81 83 80 71 69 74 70 59 70 79 39 41 307 307 306 285 303 306 332 340 3